GW3494 Weather Reports


time (UTC)temp
F
wind
direction
speed
knots
gust
knots
rain 1hr
in
rain 24hr
in
rain mn
in
humidity
%
barometer
mb
20260504100217 47 193 4.3 6.1 0.00 0.00 0.00 70 1012.6
20260504090139 46 192 3.5 6.1 0.00 0.00 0.00 67 1013.0
20260504081609 47 176 2.6 5.2 0.00 0.00 0.00 65 1013.4
20260504081105 47 189 4.3 5.2 0.00 0.00 0.00 65 1013.1
20260504080602 47 189 4.3 4.3 0.00 0.00 0.00 63 1013.4
20260504050415 49 182 2.6 4.3 0.00 0.00 0.00 54 1014.3
20260504045912 49 186 3.5 3.5 0.00 0.00 0.00 55 1014.5
20260504045408 49 194 3.5 4.3 0.00 0.00 0.00 53 1014.3
20260504044904 48 180 1.7 4.3 0.00 0.00 0.00 55 1014.2
20260504044402 48 143 1.7 3.5 0.00 0.00 0.00 59 1014.1
20260504043859 48 188 4.3 4.3 0.00 0.00 0.00 55 1014.2
20260504043356 49 168 1.7 4.3 0.00 0.00 0.00 57 1014.2
20260504042853 49 177 1.7 4.3 0.00 0.00 0.00 56 1014.1
20260504042349 49 182 3.5 3.5 0.00 0.00 0.00 55 1014.2
20260504041846 49 189 3.5 3.5 0.00 0.00 0.00 54 1014.3
20260504041342 49 180 4.3 4.3 0.00 0.00 0.00 55 1014.3
20260504040838 49 187 2.6 4.3 0.00 0.00 0.00 52 1014.3
20260504040336 49 182 2.6 4.3 0.00 0.00 0.00 54 1014.3
20260504035831 49 180 2.6 4.3 0.00 0.00 0.00 52 1014.2
20260504035330 49 166 1.7 4.3 0.00 0.00 0.00 54 1014.0
20260504034826 49 180 2.6 3.5 0.00 0.00 0.00 54 1014.1
20260504034324 49 195 0.0 3.5 0.00 0.00 0.00 54 1014.3
20260504033821 49 180 1.7 4.3 0.00 0.00 0.00 52 1014.3
20260504033319 49 180 2.6 3.5 0.00 0.00 0.00 53 1014.4
20260504032815 49 187 2.6 4.3 0.00 0.00 0.00 51 1014.2
20260504032312 49 178 2.6 3.5 0.00 0.00 0.00 52 1014.3
20260504031809 49 172 1.7 4.3 0.00 0.00 0.00 52 1014.4
20260504031307 49 187 1.7 4.3 0.00 0.00 0.00 53 1014.3
20260504030803 49 188 2.6 3.5 0.00 0.00 0.00 52 1014.4
20260504030300 49 182 2.6 3.5 0.00 0.00 0.00 51 1014.5
20260504025756 49 178 2.6 4.3 0.00 0.00 0.00 50 1014.3
20260504025253 49 182 2.6 4.3 0.00 0.00 0.00 51 1014.4
20260504024749 49 174 2.6 3.5 0.00 0.00 0.00 52 1014.6
20260504024246 49 172 1.7 3.5 0.00 0.00 0.00 51 1014.5
20260504023743 49 186 3.5 3.5 0.00 0.00 0.00 51 1014.4
20260504023239 49 180 1.7 4.3 0.00 0.00 0.00 49 1014.6
20260504022735 49 173 1.7 3.5 0.00 0.00 0.00 52 1014.5
20260504022232 50 124 1.7 3.5 0.00 0.00 0.00 51 1014.4
20260504021729 50 180 2.6 2.6 0.00 0.00 0.00 50 1014.5
20260504021226 50 180 2.6 4.3 0.00 0.00 0.00 49 1014.4
20260504020723 50 178 2.6 3.5 0.00 0.00 0.00 51 1014.3
20260504020220 50 187 2.6 2.6 0.00 0.00 0.00 51 1014.3
20260504015716 50 188 2.6 2.6 0.00 0.00 0.00 50 1014.4
20260504015212 50 188 2.6 2.6 0.00 0.00 0.00 50 1014.5
20260504014708 49 180 2.6 2.6 0.00 0.00 0.00 50 1014.6
20260504014205 50 185 2.6 2.6 0.00 0.00 0.00 48 1014.3
20260504013703 50 188 1.7 2.6 0.00 0.00 0.00 50 1014.4
20260504013159 51 201 1.7 2.6 0.00 0.00 0.00 47 1014.4
20260504012656 51 236 2.6 2.6 0.00 0.00 0.00 48 1014.4
20260504012154 51 173 0.9 3.5 0.00 0.00 0.00 46 1014.4
20260504011651 51 156 1.7 1.7 0.00 0.00 0.00 48 1014.5
20260504011147 51 172 0.0 2.6 0.00 0.00 0.00 48 1014.6
20260504010643 51 203 0.0 2.6 0.00 0.00 0.00 48 1014.6
20260504010139 51 173 1.7 2.6 0.00 0.00 0.00 47 1014.4
20260504005637 51 175 0.0 1.7 0.00 0.00 0.00 47 1014.5
20260504005133 51 176 1.7 2.6 0.00 0.00 0.00 47 1014.6
20260504004632 51 194 1.7 1.7 0.00 0.00 0.00 46 1014.3
20260504004128 52 183 1.7 2.6 0.00 0.00 0.00 46 1014.1
20260504003624 52 112 1.7 5.2 0.00 0.00 0.00 46 1014.3
20260504003121 52 203 0.9 2.6 0.00 0.00 0.00 47 1014.1
20260504002618 52 180 1.7 2.6 0.00 0.00 0.00 48 1014.3
20260504002116 52 169 0.9 2.6 0.00 0.00 0.00 45 1014.1
20260504001614 52 176 1.7 5.2 0.00 0.00 0.00 46 1014.1
20260504001109 52 232 2.6 3.5 0.00 0.00 0.00 47 1014.2
20260504000607 52 157 0.9 1.7 0.00 0.00 0.00 47 1014.3
20260504000104 52 160 0.9 1.7 0.00 0.00 0.00 44 1014.5
20260503235602 53 131 0.0 1.7 0.00 0.00 0.00 45 1014.2
20260503235058 53 243 0.0 2.6 0.00 0.00 0.00 44 1014.2
20260503234556 53 355 0.0 4.3 0.00 0.00 0.00 43 1014.2
20260503234054 53 180 0.9 2.6 0.00 0.00 0.00 43 1014.5
20260503233550 53 223 3.5 7.0 0.00 0.00 0.00 41 1014.3
20260503233046 54 206 1.7 6.1 0.00 0.00 0.00 42 1014.4
20260503232544 54 270 1.7 6.1 0.00 0.00 0.00 41 1014.3
20260503232041 54 109 0.9 5.2 0.00 0.00 0.00 42 1014.4
20260503231539 54 261 0.0 4.3 0.00 0.00 0.00 42 1014.4
20260503231035 54 174 0.9 3.5 0.00 0.00 0.00 43 1014.5
20260503230532 54 210 3.5 5.2 0.00 0.00 0.00 40 1014.3
20260503230030 55 249 2.6 6.1 0.00 0.00 0.00 40 1014.3
20260503225526 55 255 3.5 5.2 0.00 0.00 0.00 40 1014.5
20260503225021 55 29 0.0 7.0 0.00 0.00 0.00 40 1014.4
20260503224519 55 151 0.9 3.5 0.00 0.00 0.00 41 1014.5
20260503224017 56 251 0.0 4.3 0.00 0.00 0.00 40 1014.3
20260503223515 56 180 2.6 7.0 0.00 0.00 0.00 40 1014.5
20260503223010 57 306 0.9 5.2 0.00 0.00 0.00 42 1014.5
20260503222508 57 259 2.6 3.5 0.00 0.00 0.00 40 1014.9
20260503222006 57 213 1.7 4.3 0.00 0.00 0.00 40 1014.6
20260503221504 57 208 0.0 4.3 0.00 0.00 0.00 39 1014.5
20260503221001 57 222 2.6 3.5 0.00 0.00 0.00 40 1014.9
20260503220457 57 175 0.9 4.3 0.00 0.00 0.00 40 1014.4
20260503215954 57 172 0.0 10.4 0.00 0.00 0.00 41 1014.9
20260503215451 57 138 2.6 4.3 0.00 0.00 0.00 36 1014.8
20260503214948 57 159 2.6 6.1 0.00 0.00 0.00 39 1014.6
20260503214447 57 239 2.6 11.3 0.00 0.00 0.00 38 1014.5
20260503213943 58 264 2.6 6.1 0.00 0.00 0.00 40 1014.5
20260503213442 59 221 1.7 3.5 0.00 0.00 0.00 39 1014.9
20260503212937 59 206 2.6 7.0 0.00 0.00 0.00 39 1014.5
20260503212435 57 288 2.6 7.0 0.00 0.00 0.00 38 1014.6
20260503211932 57 183 2.6 8.7 0.00 0.00 0.00 38 1014.4
20260503211429 57 137 6.1 6.1 0.00 0.00 0.00 38 1014.4
20260503210924 58 200 0.9 5.2 0.00 0.00 0.00 44 1014.5
20260503210422 58 220 1.7 3.5 0.00 0.00 0.00 37 1014.6
20260503205917 58 135 1.7 6.1 0.00 0.00 0.00 38 1014.6
20260503205414 59 180 1.7 7.0 0.00 0.00 0.00 39 1014.6
20260503204910 58 238 4.3 13.9 0.00 0.00 0.00 39 1015.0
20260503204408 58 147 3.5 6.1 0.00 0.00 0.00 37 1015.1
20260503203905 57 177 1.7 3.5 0.00 0.00 0.00 45 1015.1
20260503203402 56 163 1.7 4.3 0.00 0.00 0.00 43 1015.0
20260503202859 55 191 1.7 5.2 0.00 0.00 0.00 42 1015.0
20260503202357 58 0 0.0 10.4 0.00 0.00 0.00 39 1015.3
20260503201855 58 195 1.7 5.2 0.00 0.00 0.00 40 1015.4
20260503201352 58 213 1.7 3.5 0.00 0.00 0.00 39 1015.3
20260503200849 60 233 4.3 5.2 0.00 0.00 0.00 39 1015.1
20260503200345 59 157 3.5 7.8 0.00 0.00 0.00 39 1015.5
20260503195842 59 355 0.9 5.2 0.00 0.00 0.00 40 1015.6
20260503195339 60 195 1.7 3.5 0.00 0.00 0.00 38 1015.3
20260503194836 58 187 0.9 4.3 0.00 0.00 0.00 37 1015.6
20260503194332 57 123 1.7 4.3 0.00 0.00 0.00 41 1015.8
20260503193829 58 149 2.6 5.2 0.00 0.00 0.00 39 1015.5
20260503193324 59 48 1.7 3.5 0.00 0.00 0.00 36 1015.9
20260503192820 59 227 5.2 7.8 0.00 0.00 0.00 37 1015.8
20260503192316 60 150 2.6 5.2 0.00 0.00 0.00 38 1016.0
20260503191812 58 133 2.6 3.5 0.00 0.00 0.00 41 1016.0
20260503191310 58 195 0.9 4.3 0.00 0.00 0.00 41 1016.1
20260503190806 59 14 0.0 4.3 0.00 0.00 0.00 36 1016.1
20260503190303 58 185 1.7 4.3 0.00 0.00 0.00 41 1016.2
20260503185801 57 251 2.6 14.8 0.00 0.00 0.00 40 1016.5
20260503185256 59 0 0.0 3.5 0.00 0.00 0.00 40 1016.3
20260503184755 58 192 4.3 5.2 0.00 0.00 0.00 40 1016.4
20260503184252 55 45 0.0 5.2 0.00 0.00 0.00 42 1016.3
20260503183748 57 232 6.1 7.8 0.00 0.00 0.00 41 1016.3
20260503183246 58 334 0.0 6.1 0.00 0.00 0.00 37 1016.4
20260503182743 59 125 0.0 7.0 0.00 0.00 0.00 41 1016.5
20260503182242 59 187 4.3 10.4 0.00 0.00 0.00 38 1016.5
20260503181739 60 106 0.0 3.5 0.00 0.00 0.00 36 1016.7
20260503181236 58 270 0.0 2.6 0.00 0.00 0.00 39 1016.7
20260503180732 57 204 4.3 4.3 0.00 0.00 0.00 43 1016.6
20260503180231 57 339 2.6 4.3 0.00 0.00 0.00 41 1016.7
20260503175727 55 293 4.3 5.2 0.00 0.00 0.00 41 1016.7
20260503175225 56 293 2.6 3.5 0.00 0.00 0.00 39 1016.7
20260503174721 55 31 3.5 6.1 0.00 0.00 0.00 40 1016.5
20260503174219 55 337 0.9 4.3 0.00 0.00 0.00 41 1017.2
20260503173714 55 32 0.9 6.1 0.00 0.00 0.00 41 1017.0
20260503173210 56 14 4.3 4.3 0.00 0.00 0.00 41 1017.3
20260503172707 56 262 0.0 4.3 0.00 0.00 0.00 42 1017.3
20260503172204 55 164 1.7 4.3 0.00 0.00 0.00 40 1017.0
20260503171700 55 283 0.0 1.7 0.00 0.00 0.00 39 1017.1
20260503171158 54 243 7.8 10.4 0.00 0.00 0.00 42 1017.2
20260503170654 55 230 1.7 7.0 0.00 0.00 0.00 46 1017.3
20260503170151 55 263 2.6 6.1 0.00 0.00 0.00 47 1017.3
20260503160113 52 130 4.3 5.2 0.00 0.00 0.00 42 1018.2
20260503150542 50 138 2.6 5.2 0.00 0.00 0.00 48 1018.2
20260503130932 44 214 2.6 2.6 0.00 0.00 0.00 70 1018.3
20260503130430 44 0 0.9 4.3 0.00 0.00 0.00 69 1018.1
20260503110823 36 202 2.6 3.5 0.00 0.00 0.00 86 1017.4
20260503110319 36 151 0.9 4.3 0.00 0.00 0.00 85 1017.4